{"data":{"norad_id":56103,"epoch":"2026-05-25T04:33:58.209120Z","epoch_age_seconds":54462,"freshness":"FRESH","line1":"1 56103U 23046L   26145.19025705  .00000145  00000+0  14807-4 0  9990","line2":"2 56103  43.0047  89.3181 0001372 265.0590  95.0105 15.27576976173731","mean_motion":15.27576976,"eccentricity":0.0001372,"inclination_deg":43.0047,"raan_deg":89.3181,"arg_perigee_deg":265.059,"mean_anomaly_deg":95.0105,"bstar":1.4807e-5,"rev_number":17373,"period_min":94.266935324639,"perigee_km":482.11679502375,"apogee_km":483.99950697319,"semimajor_km":6861.1951509985,"source":"CELESTRAK","updated_at":"2026-05-25T13:38:17.954861Z"}}